Weather History for KBKX - January, 2013

Change the Weather History Date:

Saturday, January 12, 2013

  Actual Average Record
Temperature  
Mean Temperature 9 °F -  
Max Temperature 15 °F 20 °F 39 °F (2004)
Min Temperature 3 °F 4 °F -18 °F (1997)
Degree Days  
Heating Degree Days 56    
Moisture  
Dew Point 1 °F    
Average Humidity 81    
Maximum Humidity 92    
Minimum Humidity 67    
Precipitation  
Precipitation 0.00 in - - ()
Sea Level Pressure  
Sea Level Pressure 29.91 in    
Wind  
Wind Speed 18 mph (WNW)    
Max Wind Speed 25 mph    
Max Gust Speed 34 mph    
Visibility 8 miles    
Events      
Averages and records for this station are not official NWS values.
T = Trace of Precipitation, MM = Missing Value Source: NWS Daily Summary

Daily Weather History Graph

Daily Weather History Graph

Search for Another Location

Airport or City:

Trip Planner

Search our weather history database for the weather conditions in past years. The results will help you decide how hot, cold, wet, or windy it might be!

Date:

Astronomy

Jan. 12, 2013 Rise Set
Actual Time 8:00 AM CST 5:10 PM CST
Civil Twilight 7:28 AM CST 5:43 PM CST
Nautical Twilight 6:52 AM CST 6:19 PM CST
Astronomical Twilight 6:17 AM CST 6:54 PM CST
Moon 8:16 AM CST (1/12) 6:45 PM CST (1/12)
Length of Visible Light 10h 14m
Length of Day
9h 09m
New Moon, 1% of the Moon is Illuminated
Jan 12
New Moon
Jan 18
First Quarter
Jan 26
Full
Feb 3
Last Quarter
Feb 10
New

Hourly Weather History & Observations

Time (CST) Temp. Windchill Dew Point Humidity Pressure Visibility Wind Dir Wind Speed Gust Speed Precip Events Conditions
12:15 AM 15.8 °F 0.3 °F 10.4 °F 79% 29.56 in 2.5 mi West 16.1 mph 26.5 mph N/A   Overcast
12:35 AM 14.0 °F -3.4 °F 8.6 °F 79% 29.57 in 1.2 mi West 19.6 mph 25.3 mph N/A   Overcast
12:55 AM 12.2 °F -5.3 °F 10.4 °F 92% 29.59 in 1.5 mi West 18.4 mph 24.2 mph N/A   Overcast
1:15 AM 12.2 °F -4.8 °F 8.6 °F 85% 29.60 in 1.8 mi West 17.3 mph 24.2 mph N/A   Overcast
1:35 AM 12.2 °F -5.8 °F 8.6 °F 85% 29.61 in 2.5 mi West 19.6 mph 28.8 mph N/A   Overcast
1:55 AM 10.4 °F -9.5 °F 6.8 °F 85% 29.63 in 3.0 mi West 23.0 mph 29.9 mph N/A   Overcast
2:15 AM 10.4 °F -7.7 °F 6.8 °F 85% 29.65 in 3.0 mi West 18.4 mph 26.5 mph N/A   Overcast
2:35 AM 10.4 °F -8.6 °F 8.6 °F 92% 29.67 in 2.5 mi West 20.7 mph 24.2 mph N/A   Overcast
2:55 AM 10.4 °F -8.2 °F 3.2 °F 73% 29.68 in 3.0 mi West 19.6 mph 28.8 mph N/A   Overcast
3:15 AM 8.6 °F -10.5 °F 3.2 °F 79% 29.70 in 8.0 mi West 19.6 mph 28.8 mph N/A   Scattered Clouds
3:35 AM 8.6 °F -11.9 °F 3.2 °F 79% 29.70 in 5.0 mi West 23.0 mph 31.1 mph N/A   Partly Cloudy
3:55 AM 8.6 °F -11.4 °F 3.2 °F 79% 29.71 in 9.0 mi West 21.9 mph 28.8 mph N/A   Clear
4:15 AM 8.6 °F -10.0 °F 1.4 °F 73% 29.73 in 10.0 mi West 18.4 mph 23.0 mph N/A   Partly Cloudy
4:35 AM 8.6 °F -12.7 °F 5.0 °F 85% 29.72 in 5.0 mi West 25.3 mph 32.2 mph N/A   Overcast
4:55 AM 8.6 °F -12.3 °F 3.2 °F 79% 29.73 in 8.0 mi West 24.2 mph 34.5 mph N/A   Overcast
5:15 AM 8.6 °F -11.0 °F 3.2 °F 79% 29.76 in 3.0 mi West 20.7 mph 31.1 mph N/A   Overcast
5:35 AM 8.6 °F -11.0 °F 1.4 °F 73% 29.77 in 10.0 mi West 20.7 mph 29.9 mph N/A   Overcast
5:55 AM 6.8 °F -15.1 °F 1.4 °F 79% 29.77 in 10.0 mi West 25.3 mph - N/A   Mostly Cloudy
6:15 AM 6.8 °F -12.9 °F -0.4 °F 72% 29.79 in 10.0 mi West 19.6 mph 28.8 mph N/A   Mostly Cloudy
6:35 AM 6.8 °F -12.4 °F 1.4 °F 79% 29.80 in 6.0 mi West 18.4 mph - N/A   Mostly Cloudy
6:55 AM 5.0 °F -12.3 °F -0.4 °F 78% 29.82 in 10.0 mi West 13.8 mph - N/A   Scattered Clouds
7:15 AM 5.0 °F -13.0 °F -0.4 °F 78% 29.84 in 9.0 mi West 15.0 mph 24.2 mph N/A   Scattered Clouds
7:35 AM 5.0 °F -13.6 °F -0.4 °F 78% 29.84 in 10.0 mi West 16.1 mph - N/A   Partly Cloudy
7:55 AM 3.2 °F -17.1 °F -0.4 °F 85% 29.86 in 10.0 mi West 18.4 mph 21.9 mph N/A   Clear
8:15 AM 3.2 °F -15.3 °F -0.4 °F 85% 29.87 in 10.0 mi West 15.0 mph 21.9 mph N/A   Scattered Clouds
8:35 AM 3.2 °F -15.3 °F 1.4 °F 92% 29.88 in 3.0 mi WNW 15.0 mph - N/A   Overcast
8:55 AM 3.2 °F -17.1 °F 1.4 °F 92% 29.89 in 2.0 mi WNW 18.4 mph - N/A   Overcast
9:15 AM 3.2 °F -15.3 °F -2.2 °F 78% 29.90 in 10.0 mi West 15.0 mph 23.0 mph N/A   Partly Cloudy
9:55 AM 5.0 °F -16.2 °F -0.4 °F 78% 29.92 in 10.0 mi West 21.9 mph 25.3 mph N/A   Clear
10:15 AM 5.0 °F -15.2 °F -2.2 °F 72% 29.93 in 10.0 mi WNW 19.6 mph 26.5 mph N/A   Partly Cloudy
10:35 AM 5.0 °F -13.6 °F -0.4 °F 78% 29.95 in 10.0 mi WNW 16.1 mph 24.2 mph N/A   Partly Cloudy
10:55 AM 6.8 °F -12.9 °F -0.4 °F 72% 29.96 in 10.0 mi WNW 19.6 mph - N/A   Mostly Cloudy
11:15 AM 6.8 °F -11.8 °F -0.4 °F 72% 29.97 in 10.0 mi West 17.3 mph - N/A   Mostly Cloudy
11:55 AM 6.8 °F -10.0 °F 3.2 °F 85% 29.97 in 4.0 mi West 13.8 mph 24.2 mph N/A   Overcast
12:15 PM 6.8 °F -12.4 °F 1.4 °F 79% 29.97 in 8.0 mi West 18.4 mph 21.9 mph N/A   Mostly Cloudy
12:35 PM 6.8 °F -11.3 °F 1.4 °F 79% 29.96 in 7.0 mi West 16.1 mph 20.7 mph N/A   Mostly Cloudy
12:55 PM 6.8 °F -11.8 °F 1.4 °F 79% 29.97 in 8.0 mi West 17.3 mph 21.9 mph N/A   Mostly Cloudy
1:15 PM 6.8 °F -13.4 °F 1.4 °F 79% 29.97 in 9.0 mi West 20.7 mph - N/A   Mostly Cloudy
1:35 PM 6.8 °F -13.4 °F 3.2 °F 85% 29.96 in 4.0 mi West 20.7 mph 24.2 mph N/A   Mostly Cloudy
1:55 PM 6.8 °F -13.4 °F 1.4 °F 79% 29.97 in 7.0 mi West 20.7 mph - N/A   Overcast
2:15 PM 6.8 °F -10.7 °F 1.4 °F 79% 29.98 in 5.0 mi West 15.0 mph - N/A   Mostly Cloudy
2:35 PM 6.8 °F -12.4 °F 1.4 °F 79% 29.97 in 7.0 mi West 18.4 mph 23.0 mph N/A   Mostly Cloudy
2:55 PM 6.8 °F -11.8 °F 1.4 °F 79% 29.98 in 9.0 mi WNW 17.3 mph - N/A   Mostly Cloudy
3:15 PM 6.8 °F -12.9 °F 1.4 °F 79% 29.98 in 5.0 mi WNW 19.6 mph - N/A   Mostly Cloudy
3:35 PM 6.8 °F -12.4 °F -0.4 °F 72% 29.99 in 10.0 mi WNW 18.4 mph 24.2 mph N/A   Mostly Cloudy
3:55 PM 6.8 °F -12.4 °F 1.4 °F 79% 29.99 in 10.0 mi WNW 18.4 mph - N/A   Mostly Cloudy
4:15 PM 6.8 °F -12.4 °F -0.4 °F 72% 29.98 in 10.0 mi WNW 18.4 mph - N/A   Mostly Cloudy
4:35 PM 6.8 °F -12.4 °F 3.2 °F 85% 29.99 in 7.0 mi WNW 18.4 mph 21.9 mph N/A   Mostly Cloudy
4:55 PM 6.8 °F -12.4 °F -2.2 °F 67% 29.99 in 10.0 mi NW 18.4 mph - N/A   Mostly Cloudy
5:15 PM 5.0 °F -10.8 °F -0.4 °F 78% 30.03 in 10.0 mi WNW 11.5 mph - N/A   Scattered Clouds
5:35 PM 5.0 °F -8.1 °F -0.4 °F 78% 30.03 in 10.0 mi NW 8.1 mph - N/A   Mostly Cloudy
5:55 PM 5.0 °F -5.6 °F 1.4 °F 85% 30.06 in 10.0 mi West 5.8 mph - N/A   Mostly Cloudy
6:15 PM 5.0 °F -10.0 °F 1.4 °F 85% 30.05 in 10.0 mi WNW 10.4 mph - N/A   Overcast
6:35 PM 3.2 °F -13.9 °F -0.4 °F 85% 30.06 in 9.0 mi WNW 12.7 mph - N/A   Overcast
6:55 PM 3.2 °F -13.9 °F -2.2 °F 78% 30.06 in 10.0 mi WNW 12.7 mph - N/A   Overcast
7:15 PM 3.2 °F -13.1 °F -2.2 °F 78% 30.06 in 10.0 mi WNW 11.5 mph - N/A   Mostly Cloudy
7:35 PM 3.2 °F -13.9 °F -0.4 °F 85% 30.06 in 10.0 mi WNW 12.7 mph - N/A   Scattered Clouds
7:55 PM 3.2 °F -13.9 °F -0.4 °F 85% 30.05 in 10.0 mi WNW 12.7 mph - N/A   Mostly Cloudy
8:15 PM 3.2 °F -14.6 °F -0.4 °F 85% 30.05 in 10.0 mi NW 13.8 mph - N/A   Overcast
8:35 PM 3.2 °F -14.6 °F -0.4 °F 85% 30.07 in 10.0 mi NW 13.8 mph - N/A   Overcast
8:55 PM 3.2 °F -17.1 °F -0.4 °F 85% 30.06 in 10.0 mi NW 18.4 mph 21.9 mph N/A   Overcast
9:15 PM 3.2 °F -12.2 °F -2.2 °F 78% 30.09 in 10.0 mi NW 10.4 mph - N/A   Overcast
9:35 PM 3.2 °F -13.1 °F -0.4 °F 85% 30.09 in 10.0 mi NW 11.5 mph - N/A   Overcast
9:55 PM 3.2 °F -15.9 °F -2.2 °F 78% 30.09 in 10.0 mi NW 16.1 mph - N/A   Overcast
10:15 PM 3.2 °F -15.3 °F -2.2 °F 78% 30.08 in 10.0 mi NW 15.0 mph - N/A   Overcast
10:35 PM 3.2 °F -14.6 °F -0.4 °F 85% 30.08 in 5.0 mi NW 13.8 mph - N/A   Overcast
10:55 PM 3.2 °F -15.3 °F -0.4 °F 85% 30.08 in 5.0 mi NW 15.0 mph - N/A   Overcast
11:15 PM 3.2 °F -14.6 °F -0.4 °F 85% 30.08 in 10.0 mi NW 13.8 mph - N/A   Overcast
11:35 PM 3.2 °F -16.5 °F -0.4 °F 85% 30.07 in 10.0 mi NW 17.3 mph - N/A   Overcast
11:55 PM 3.2 °F -15.3 °F -0.4 °F 85% 30.07 in 9.0 mi NW 15.0 mph - N/A   Overcast